Regional Weather Roundup
Issued by NWS Burlington, VT

Home | Current Version | Previous Version | Text Only | Print | Product List | Glossary On
Versions: 1 2 3 4 5 6 7 8 9 10 11 12 13 14 15 16 17 18 19 20 21 22 23 24 25 26 27 28 29 30 31 32 33 34 35 36 37 38 39 40 41 42 43 44 45 46 47 48 49 50
000
ASUS41 KBTV 181210
RWRBTV
VERMONT REGIONAL WEATHER ROUNDUP
NATIONAL WEATHER SERVICE BURLINGTON VT
800 AM EDT FRI APR 18 2014

NOTE: "FAIR" INDICATES FEW OR NO CLOUDS BELOW 12,000 FEET WITH NO
SIGNIFICANT WEATHER AND/OR OBSTRUCTIONS TO VISIBILITY.

* THESE REPORTS ARE NOT UNDER NWS QUALITY CONTROL AND/OR DO NOT
  REPORT WEATHER SUCH AS PRECIPITATION AND FOG.

VTZ001>019-181300-
_____VERMONT_____


CITY           SKY/WX    TMP DP  RH WIND       PRES   REMARKS
BURLINGTON     PTSUNNY   37  16  42 SE5       30.47F
6HR MIN TEMP:  31; 6HR MAX TEMP:  37;

MONTPELIER     SUNNY     31  13  47 S10       30.52F
6HR MIN TEMP:  23; 6HR MAX TEMP:  31;

MORRISVILLE    MOSUNNY   33  13  43 S7        30.50F
6HR MIN TEMP:  26; 6HR MAX TEMP:  33;

ST. JOHNSBURY*   N/A     29  20  69 MISG      30.50F
6HR MIN TEMP:  24; 6HR MAX TEMP:  29;

LYNDONVILLE*   FAIR      31  14  50 S5        30.50F
6HR MIN TEMP:  26; 6HR MAX TEMP:  31;

MIDDLEBURY*    FAIR      36  11  34 SE6       30.47F
6HR MIN TEMP:  29; 6HR MAX TEMP:  37;

RUTLAND*       SUNNY     32  14  47 SE15      30.49S
6HR MIN TEMP:  28; 6HR MAX TEMP:  32;

SPRINGFIELD    SUNNY     26  22  84 CALM      30.55R
6HR MIN TEMP:  20; 6HR MAX TEMP:  26;

HIGHGATE*      FAIR      41  17  38 NE6       30.45S
6HR MIN TEMP:  36; 6HR MAX TEMP:  41;

NEWPORT*       FAIR      34  13  43 S6        30.47F
6HR MIN TEMP:  30; 6HR MAX TEMP:  34;

BENNINGTON     SUNNY     35  11  36 SE7       30.48S
6HR MIN TEMP:  25; 6HR MAX TEMP:  35;

SUTTON*          N/A     30 N/A N/A MISG        N/A

_____LAKE CHAMPLAIN_____


CITY           SKY/WX    TMP DP  RH WIND       PRES   REMARKS
COLCHESTER RF*   N/A     36  25  64 S22         N/A
DIAMOND ISL*     N/A     36  19  51 S15         N/A

$$

NYZ007-026>031-035-052-083-181300-
_____NORTHERN NEW YORK_____


CITY           SKY/WX    TMP DP  RH WIND       PRES   REMARKS
PLATTSBURGH    MOSUNNY   37  21  52 CALM      30.45F
6HR MIN TEMP:  33; 6HR MAX TEMP:  37;

SARANAC LAKE   MOSUNNY   32  26  78 CALM      30.36F
6HR MIN TEMP:  20; 6HR MAX TEMP:  32;

MASSENA        MOSUNNY   41  24  51 S6        30.40S
6HR MIN TEMP:  32; 6HR MAX TEMP:  41;

OGDENSBURG*    SUNNY     43  27  52 S7        30.38S
POTSDAM*       SUNNY     43  27  52 S6        30.39R
WATERTOWN      MOSUNNY   43  24  47 S8        30.37S
6HR MIN TEMP:  40; 6HR MAX TEMP:  45;

FT DRUM        MOSUNNY   39  26  60 S16       30.36S
6HR MIN TEMP:  36; 6HR MAX TEMP:  39;

ALBANY         MOSUNNY   34  21  59 S9        30.53R
6HR MIN TEMP:  27; 6HR MAX TEMP:  36;

GLENS FALLS    SUNNY    N/A N/A N/A CALM      30.51S

$$
NHZ002-005-011-181300-
_____NEW HAMPSHIRE_____


CITY           SKY/WX    TMP DP  RH WIND       PRES   REMARKS
LEBANON        SUNNY     28  21  75 S5        30.54R
6HR MIN TEMP:  21; 6HR MAX TEMP:  28;

KEENE          SUNNY     27  19  74 CALM      30.55S
6HR MIN TEMP:  21; 6HR MAX TEMP:  27;

PLYMOUTH         N/A     28  25  89 CALM      30.55S
6HR MIN TEMP:  22; 6HR MAX TEMP:  27;

WHITEFIELD     SUNNY     28  21  75 CALM      30.49F
6HR MIN TEMP:  21; 6HR MAX TEMP:  29;


$$

_____REGIONAL QUEBEC LOCATIONS_____


CITY           SKY/WX    TMP DP  RH WIND       PRES   REMARKS
MONTREAL       CLOUDY    37  23  56 SE10      30.43S
QUEBEC CITY    PTSUNNY   34  21  60 NE5       30.51F
SHERBROOKE     SUNNY     32  19  59 E5        30.47F

_____REGIONAL ONTARIO LOCATIONS_____


CITY           SKY/WX    TMP DP  RH WIND       PRES   REMARKS
OTTAWA         CLOUDY    37  25  60 E5        30.38R

______KEY______
VSB  - VISIBILITY IN MILES
WCI  - WIND CHILL INDEX
HX   - HEAT INDEX
$$
NNNN


USA.gov is the U.S. government's official web portal to all federal, state and local government web resources and services.